Regional Weather Roundup
Issued by NWS Pendleton, OR

Home | Current Version | Previous Version | Text Only | Print | Product List | Glossary On
Versions: 1 2 3 4 5 6 7 8 9 10 11 12 13 14 15 16 17 18 19 20 21 22 23 24 25 26 27 28 29 30 31 32 33 34 35 36 37 38 39 40 41 42 43 44 45 46 47 48 49 50
000
ASUS46 KPDT 261104
RWRPDT
PENDLETON REGIONAL WEATHER ROUNDUP
NATIONAL WEATHER SERVICE PENDLETON OREGON
300 AM PST MON JAN 26 2015

NOTE: FAIR INDICATES FEW OR NO CLOUDS BELOW 12,000 FEET WITH NO
SIGNIFICANT WEATHER AND/OR OBSTRUCTIONS TO VISIBILITY.

# INDICATES UNOFFICIAL STATION AND DATA

WAZ520-261210-
EAST SLOPES OF WASHINGTON CASCADES

CITY            SKY/WX      TMP DP  RH  WIND    PRES   REMARKS
#BULLFROG       N/A         31  31  100 S8      N/A
#BULLFROG 2SW   N/A         34  35  100 CALM    27.67F
#BUMPING DAM    N/A         29  N/A N/A W1      N/A
#CLE ELUM HS    N/A         32  31  96  CALM    30.06F
#CLE ELUM LAKE  N/A         39  34  82  CALM    30.06F
#CLIFFDEL 2NW   N/A         32  31  96  CALM    N/A
#EASTON DOT     N/A         33  32  96  CALM    N/A
#ELK HTS DOT    N/A         32  32  100 NW5     N/A
#GLENWOOD       N/A         29  28  96  CALM    30.11S
#MANASTASH CYN  N/A         37  29  72  CALM    30.03F
#NELSON         N/A         31  30  96  CALM    30.16F
#NELSON 3SW     N/A         34  33  96  CALM    30.32F
#NILE           N/A         34  32  92  W2      29.38F
#PEOH POINT     N/A         44  32  62  E1      N/A
#RONALD 2NW     N/A         36  28  72  CALM    29.93F
#SNOWDEN        N/A         33  28  82  CALM    N/A
#TEANAWAY 4NE   N/A         31  31  100 CALM    N/A
#TROUT LAKE 1NE N/A         34  33  96  CALM    30.09S
$$

WAZ521-261210-
SIMCOE HIGHLANDS

CITY            SKY/WX      TMP DP  RH  WIND    PRES   REMARKS
#BICKLETON HS   N/A         53  31  43  W3      N/A
#SATUS PASS DOT N/A         42  38  86  SE12    N/A    WCI 35
#CENTERVILLE 4W N/A         37  35  92  NE2     29.82S
#CENTERVILLE 1SWN/A         35  33  92  CALM    30.05R
#GOLDENDALE     N/A         35  35  100 N2      N/A
#GOLDENDALE 1NE N/A         35  32  89  CALM    N/A
#GOLDENDALE 1S  N/A         36  35  96  E6      30.05S
#GOLDENDALE 5WNWN/A         36  34  92  CALM    30.08S
#GOODNOE HILLS  N/A         36  33  89  S2      N/A
#LYLE 6NE       N/A         40  39  96  CALM    30.07S
$$

WAZ026-261210-
KITTITAS VALLEY

CITY            SKY/WX      TMP DP  RH  WIND    PRES   REMARKS
ELLENSBURG AP   FOG         35  33  92  CALM    30.09F VSB<1/4
#ELLENSBURG CWU N/A         34  33  96  CALM    30.09S
#ELLENSBURG 3NE N/A         32  31  96  CALM    30.10F
#ELLENSBURG 1E  N/A         33  32  96  CALM    N/A
#KITTITAS 4N    N/A         32  30  92  CALM    28.39F
#KITTITAS 3S    N/A         34  33  96  CALM    30.13F
#MANASTASH RDG  N/A         37  37  100 CALM    N/A
#ROCKY CYN DOT  N/A         34  34  100 NW5     N/A
#RYEGRASS DOT   N/A         35  33  92  E12     N/A    WCI 27
#THORP 6N       N/A         35  32  89  CALM    30.13F
$$

WAZ027-261210-
YAKIMA VALLEY

CITY            SKY/WX      TMP DP  RH  WIND    PRES   REMARKS
YAKIMA AIRPORT  FOG         35  34  96  W3      30.12F VSB 1/4
YAKIMA-VAGABOND FOG         35  35  100 N1      30.10S VSB 3/8
#DONALD 2NE     N/A         36  36  100 CALM    28.97S
#GRANDVIEW      N/A         36  35  96  E1      30.17F
#MABTON         N/A         37  37  100 CALM    30.13S
#NACHES 2SW     N/A         35  33  92  CALM    30.08F
#PARKER DOT     N/A         36  36  100 CALM    N/A
#SELAH 8E       N/A         34  34  100 CALM    N/A
#TERRACE HTS    N/A         35  34  96  CALM    30.12S
#TOPPENISH      N/A         37  36  96  CALM    30.07S
#I82 S UMTANUM RN/A         38  36  92  SW2     N/A
#UNION GAP DOT  N/A         36  36  100 CALM    N/A
#WAPATO 4NE     N/A         36  36  100 CALM    28.97S
#WEST VALLEY    N/A         34  33  96  CALM    30.14S
#W YAKIMA       N/A         35  34  96  CALM    30.15F
#WHITE SWAN 5E  N/A         36  35  96  CALM    30.16F
#WILEY CITY 3W  N/A         31  28  88  CALM    30.13F
#ZILLAH DOT     N/A         37  37  100 SW2     N/A
$$

WAZ028-261210-
LOWER COLUMBIA BASIN...WASHINGTON

CITY            SKY/WX      TMP DP  RH  WIND    PRES   REMARKS
PASCO           FOG         38  38  100 NW3     30.14F VSB 3/4
PROSSER AWOS    N/A         37  37  100 N5      30.16S
RICHLAND AWOS   FOG         37  37  100 CALM    30.16S VSB 1/2
#BASIN CITY 5SW N/A         36  35  96  W3      30.13F
#BENTON CITY    N/A         36  35  96  E6      30.06F
#CONNELL 5N     N/A         35  35  100 NW5     30.14F
#CONNELL 5NW    N/A         36  36  100 N5      30.11F
#ELTOPIA 6NW    N/A         36  36  100 W1      29.08F
#KAHLOTUS       N/A         34  33  96  NE1     30.15S
#KENNEWICK      N/A         34  35  100 CALM    27.67F
#KENNEWICK 3S   N/A         37  36  96  CALM    30.16F
#PASCO-BROADMOORN/A         38  36  92  CALM    30.06F
#PATERSON       N/A         37  36  96  CALM    30.14
#PROSSER DOT    N/A         37  N/A N/A E1      N/A
#PROSSER        N/A         36  35  96  CALM    30.15F
#SAGEMOOR 2W    N/A         37  36  96  SW2     30.01F
#TOUCHET 2S     N/A         37  36  96  CALM    30.16F
#WEST PASCO     N/A         39  37  92  CALM    30.10F
$$

WAZ029-261210-
FOOTHILLS OF THE BLUES...WASHINGTON

CITY            SKY/WX      TMP DP  RH  WIND    PRES   REMARKS
WALLA WALLA AP  FOG         35  34  96  CALM    30.11R VSB 1/4
#DAYTON SCHOOL  N/A         33  30  89  SW2     30.10F
#DELANEY DOT    N/A         37  36  96  CALM    N/A
#LOWDEN 2SE     N/A         37  36  96  CALM    30.11S
#PLEASANT VIEW 1N/A         33  32  96  CALM    30.17S
#PRESCOTT       N/A         36  35  96  CALM    30.14R
#SUDBURY        N/A         40  N/A N/A CALM    N/A
#WHITMAN COLLEGEN/A         34  33  96  CALM    30.21R
#WAITSBURG 5S   N/A         33  32  96  W2      30.22R
#WAITSBURG 8N   N/A         32  26  78  CALM    29.94S
#WALLA WALLA 5E N/A         34  33  96  N1      N/A
#WALLA WALLA U  N/A         36  35  96  CALM    30.16S
#WHITMAN MISSIONN/A         37  36  96  CALM    30.17F
$$

WAZ030-261210-
BLUE MOUNTAINS...WASHINGTON

CITY            SKY/WX      TMP DP  RH  WIND    PRES   REMARKS
#DIXIE 5SE      N/A         66  28  24  SW8     30.14S
#SKI BLUEWOOD   N/A         48  34  58  SW9     30.16F
$$

ORZ009-041-WAZ024-261210-
COLUMBIA RIVER GORGE

CITY            SKY/WX      TMP DP  RH  WIND    PRES   REMARKS
HOOD RIVER AP   FOG         41  41  100 CALM    30.11S VSB 1/2
THE DALLES AP   CLOUDY      42  38  86  E12     30.12F WCI 35
#ARLINGTON AIRPON/A         36  36  100 NE3     30.01S
#ARLINGTON HS   N/A         39  38  96  CALM    30.08R
#CELILO DOT     N/A         41  37  86  CALM    N/A
#LYLE           N/A         43  41  93  SE12    30.13F WCI 37
#MARYHILL       N/A         38  N/A N/A CALM    N/A
#MOSIER 1S      N/A         41  40  96  CALM    30.12S
#MURDOCK        N/A         43  42  96  NE6     30.14F
#RUFUS DOT      N/A         40  37  89  E7      N/A

$$

ORZ510-261210-
NORTH CENTRAL OREGON

CITY            SKY/WX      TMP DP  RH  WIND    PRES   REMARKS
#CHENOWITH 1W   N/A         36  36  100 E5      N/A
#COW CYN RST AREN/A         52  38  59  SW6     N/A
#DUFUR 9E       N/A         38  37  96  CALM    30.09S
#GRASS VALLEY 1SN/A         34  33  96  CALM    30.07R
#KENT DOT       N/A         46  31  56  SW6     N/A
#MAUPIN SCHOOL  N/A         40  38  92  CALM    30.09F
#MORO SCHOOL    N/A         37  37  100 CALM    30.08S
#SHANIKO 5WSW   N/A         54  28  36  S15     N/A
#SHANIKO 4NW    N/A         54  34  47  S15     30.06R
#TYGH VALLEY 2NEN/A         40  39  96  CALM    30.09S
#WAPANITIA AIRPON/A         35  33  92  CALM    30.08F
#WASCO DOT      N/A         38  37  96  SE7     N/A
#WASCO 5NE      N/A         34  33  96  N1      30.11S
$$

ORZ511-261210-
CENTRAL OREGON

CITY            SKY/WX      TMP DP  RH  WIND    PRES   REMARKS
BEND AIRPORT    CLEAR       41  32  70  CALM    30.11F
MADRAS AIRPORT  N/A         46  37  71  CALM    30.07F
PRINEVILLE AP   CLEAR       50  37  61  S5      30.12F
REDMOND AIRPORT CLEAR       50  36  58  SE9     30.08F
#BEND 1SW       N/A         43  37  79  SW1     N/A
#BEND-AWBREY    N/A         49  37  63  SW6     30.02S
#BEND-KIM LN    N/A         46  37  71  S1      30.07F
#CROOKED RVR RANN/A         51  40  66  S5      30.02F
#CULVER         N/A         56  39  53  SE6     30.01F
#LAKE BILLY CHINN/A         45  27  49  CALM    30.16F
#POWELL BUTTE 3EN/A         50  37  61  E6      N/A
#POWELL BUTTE   N/A         55  36  49  SW14    29.71F
#PRINEVILLE 3N  N/A         37  34  89  E3      30.07F
#WARM SPRINGS   N/A         34  32  92  CALM    30.03F

$$


ORZ509-261210-
EAST SLOPES OF OREGON CASCADES

CITY            SKY/WX      TMP DP  RH  WIND    PRES   REMARKS
#BLUE BOX PASS  N/A         52  -1  11  CALM    N/A
#CAMP SHERMAN   N/A         29  27  92  CALM    30.09F
#LA PINE DOT    N/A         32  29  89  W3      N/A
#LA PINE 4NW    N/A         30  26  85  CALM    30.18F
#LAVA BUTTE DOT N/A         44  32  62  W1      N/A
#MT BACHELOR-MIDN/A         48  19  31  N33G62  N/A    WCI 39
#SISTERS AIRPOR N/A         29  29  100 CALM    30.17S
#SISTERS ODOT   N/A         31  N/A N/A CALM    N/A
#SISTERS 3N     N/A         28  24  85  CALM    30.10S
#SUNRIVER       N/A         33  31  92  CALM    30.04F
#TUMALO 3W      N/A         55  36  49  S7      29.91F
#WANOGA BUTTE D N/A         45  32  60  W9      N/A

$$

ORZ044-261210-
LOWER COLUMBIA BASIN...OREGON

CITY            SKY/WX      TMP DP  RH  WIND    PRES   REMARKS
HERMISTON       FOG         37  36  96  N6      30.11F VSB 1/4
#BOARDMAN 3W    N/A          0   0  100 E2      29.85F
#BOARDMAN 8SW   N/A         38  37  96  CALM    30.14F
#ECHO 8SW       N/A         37  37  100 NE6     30.09F
#IONE SCHOOL    N/A         35  26  69  CALM    30.09F
#IRRIGON 4NW    N/A         38  38  100 SE3     N/A
#UMATILLA SCHOOLN/A         35  35  100 CALM    30.16F
#UMATILLA       N/A         38  35  89  CALM    30.11F
$$

ORZ507-261210-
NORTHERN FOOTHILLS OF THE BLUES

CITY            SKY/WX      TMP DP  RH  WIND    PRES   REMARKS
PENDLETON AIRPT FOG         33  33  100 NW12    30.07F VSB<1/4 WCI 24
#ADAMS 3WNW     N/A         31  29  92  CALM    30.08R
#ATHENA         N/A         32  30  92  N3      30.10F
#CAYUSE         N/A         31  30  96  SW1     30.07S
#HELIX SCHOOL   N/A         34  32  92  CALM    30.09R
#HELIX 3N       N/A         33  31  92  NW2     30.03S
#HELIX 6SW      N/A         30  28  92  CALM    30.08
#HOLDMAN 5SE    N/A         32  31  96  CALM    30.09F
#HOLDMAN 6E     N/A         31  30  96  CALM    29.91S
#M-F FERNDALE   N/A         36  35  96  CALM    30.12S
#M-F GROVE ELEM N/A         35  33  92  CALM    30.09F
#M-FREEWATER 5SEN/A         34  33  96  CALM    30.09F
#PENDLETON DNTN N/A         35  31  85  CALM    28.91S
#PDT AQUATIC CTRN/A         36  31  82  CALM    30.10S
#PENDLETON 5NE  N/A         31  30  96  CALM    30.04F
#PDT SUNRIDGE   N/A         34  33  96  CALM    30.10F
#PENDLETON 7NW  N/A         35  33  92  W2      26.92R
#PILOT ROCK     N/A         34  29  82  W2      30.08F
#TUTUILLA       N/A         34  32  92  N1      30.10F
#UMAPINE 2E     N/A         37  36  96  N1      30.10S
#WESTON SCHOOL  N/A         32  30  92  NE6     30.06F

$$

ORZ508-261210-
SOUTHERN FOOTHILLS OF THE BLUES

CITY            SKY/WX      TMP DP  RH  WIND    PRES   REMARKS
LEXINGTON       FOG         34  34  100 N9      30.08F VSB<1/4
#AJAX           N/A         35  30  82  N6      29.99S
#CONDON SCHOOL  N/A         54  39  57  CALM    30.00F
#CONDON 5W      N/A         57  33  40  SE22G31 30.02F
#FOSSIL SCHOOL  N/A         58  36  44  SE7     30.03F
#HEPPNER EOC    N/A         38  37  96  E2      29.98F
#HEPPNER 4NE    N/A         51  41  68  E2      30.00F
#LEXINGTON 2SE  N/A         36  34  92  NW3     30.04F
#MIKKALO        N/A         36  36  100 CALM    30.09R
#OLEX 4N        N/A         36  35  96  N3      30.10R
#RUGGS 5NE      N/A         60  33  36  SW6     30.20S
#RUGGS 2SW      N/A         56  34  43  S15G26  29.99F

$$

ORZ502-503-261210-
BLUE MOUNTAINS

CITY            SKY/WX      TMP DP  RH  WIND    PRES   REMARKS
MEACHAM         PTCLDY      43  34  70  CALM    30.15F
#BATTLE MTN DOT N/A         43  35  73  S9      N/A
#HARDMAN 10S    N/A         42  33  70  S2      30.22F
#HEPPNER 15SE   N/A         59  30  33  E1      30.01F
#LADD CYN SMT   N/A         38  31  76  SE29    N/A    WCI 26
#LADD CREEK ODOTN/A         43   1  17  SW10    N/A
#LONG CREEK HS  N/A         40  36  85  CALM    30.09F
#N POWDER DOT   N/A         29  28  96  W7      N/A
#PIKES PEAK     N/A         65  29  26  S24G33  27.99S
#TOLLGATE       N/A         44  35  70  S2      30.10F
#TROY SCHOOL    N/A         35  33  92  W3      30.17F
#UKIAH          N/A         27  26  96  CALM    30.27F
#WESTON 4E      N/A         51  36  56  SE21G39 30.01S
$$

ORZ505-261210-
JOHN DAY BASIN

CITY            SKY/WX      TMP DP  RH  WIND    PRES   REMARKS
JOHN DAY        CLEAR       50  33  52  E9      30.19F
#JOHN DAY KJDY  N/A         35  35  100 E1      30.18F
#DAYVILLE SCHOOLN/A         42  33  70  CALM    30.12F
#MONUMENT HS    N/A         36  33  89  CALM    30.16F
#MT. VERNON 5SE N/A         50  37  61  E7      30.14F
#WINLOCK        N/A         48  34  58  SW3     30.19F
$$

ORZ506-261210-
OCHOCO AND JOHN DAY HIGHLANDS

CITY            SKY/WX      TMP DP  RH  WIND    PRES   REMARKS
#HORSE RIDGE DO N/A         42  32  67  S1      N/A
#KEYES SMT DOT  N/A         52  32  46  E7      N/A
#PAULINA SCHOOL N/A         57  40  53  CALM    30.14F
#PINE MTN OBS   N/A         47  32  56  S16     N/A    WCI 41
#PRAIRIE CITY   N/A         28  24  85  CALM    30.40F
#SENECA         N/A         28  N/A N/A SE2     N/A
#SENECA 9NW     N/A         26  25  96  CALM    30.33F
$$

ORZ049-261210-
GRANDE RONDE VALLEY

CITY            SKY/WX      TMP DP  RH  WIND    PRES   REMARKS
LA GRANDE       PTCLDY      45  30  55  S38G54  30.22F WCI 34
#COVE           N/A         37  31  79  N1      30.03S
#COVE SCHOOL    N/A         37  34  89  E1      30.19F
#COVE 6NW       N/A         37  32  82  SE5     30.33F
#ELGIN 3N       N/A         41  30  65  S8      30.04F
#ELGIN 1E       N/A         40  33  76  CALM    N/A
#IMBLER SCHOOL  N/A         38  32  79  SE7     30.19S
#ISLAND CITY 4N N/A         42  42  100 CALM    30.00R
#LADD CYN DOT   N/A         45  34  65  S25G41  N/A    WCI 36
#UNION 1S       N/A         37  33  85  S23G36  30.21R WCI 26
$$

ORZ050-261210-
WALLOWA COUNTY

CITY            SKY/WX      TMP DP  RH  WIND    PRES   REMARKS
#ENTERPRISE AP  N/A         28  26  92  CALM    30.15F
#ENTERPRISE HS  N/A         29  28  96  CALM    30.23F
#IMNAHA SCHOOL  N/A         50  38  63  SW7     30.17F
#IMNAHA 10S     N/A         55  37  51  SW1     30.17F
#JOSEPH 3N      N/A         26  26  100 CALM    30.24F
#JOSEPH 3W      N/A         32  28  85  SW1     30.03F
#LOSTINE        N/A         27  26  96  CALM    30.15F
#MT HOWARD 8000 N/A         49  20  31  S15G25  30.32F WCI 43
#PROMISE 1S     N/A         36  33  89  CALM    30.35F
#SHEEP RDG 7000 N/A         54  21  27  CALM    30.06F
#WALLOWA SCHOOL N/A         30  29  96  CALM    31.35S



$$



USA.gov is the U.S. government's official web portal to all federal, state and local government web resources and services.